Tracking 23728 objects as of 23-Sep-2021
HD Live streaming from Space Station
objects crossing your sky now

SHIJIAN-16 (SJ-16)

Track SHIJIAN-16 (SJ-16) now!
10-day predictions
SHIJIAN-16 (SJ-16) is classified as:


NORAD ID: 39358
Int'l Code: 2013-057A
Perigee: 605.4 km
Apogee: 630.8 km
Inclination: 75.0 °
Period: 96.9 minutes
Semi major axis: 6989 km
RCS: Unknown
Launch date: October 25, 2013
Source: People's Republic of China (PRC)
Launch site: Jiuquan Satellite Launch Center, China (JSC)

SHIJIAN-16 will be used mainly for conducting space environment exploration and technological experiments.
aabbcc
Your satellite tracking list
Your tracking list is empty




NASA's NSSDC Master Catalog

Two Line Element Set (TLE):
1 39358U 13057A   21266.01760681  .00000266  00000-0  33622-4 0  9994
2 39358  74.9769   9.3662 0018105  82.3642 277.9594 14.85837777429272
Source of the keplerian elements: AFSPC